Time,TemperatureF,DewpointF,PressureIn,WindDirection,WindDirectionDegrees,WindSpeedMPH,WindSpeedGustMPH,Humidity,HourlyPrecipIn,Conditions,Clouds,dailyrainin,SolarRadiationWatts/m^2,SoftwareType,DateUTC
2013-04-27 00:00:00,51.9,47.2,30.12,SSW,202,4.0,10.0,84,0.00,,,0.00,0,LWC V2.10 B1813,2013-04-27 05:00:00,
2013-04-27 00:01:00,50.7,46.7,30.12,SSW,213,1.0,7.0,86,0.00,,,0.05,,LWC V1.12 B30,2013-04-27 05:01:00,
2013-04-27 00:06:00,50.5,46.5,30.12,SSW,210,3.0,8.0,86,0.00,,,0.05,,LWC V1.12 B30,2013-04-27 05:06:00,
2013-04-27 00:10:00,51.1,46.7,30.12,SSW,202,3.0,8.0,85,0.00,,,0.00,0,LWC V2.10 B1813,2013-04-27 05:10:00,
2013-04-27 00:11:00,50.3,46.3,30.12,SSW,211,1.0,5.0,86,0.00,,,0.05,,LWC V1.12 B30,2013-04-27 05:11:00,
2013-04-27 00:16:00,50.0,46.0,30.12,SSW,211,4.0,4.0,86,0.00,,,0.09,,LWC V1.12 B30,2013-04-27 05:16:00,
2013-04-27 00:20:00,51.1,46.7,30.12,SSW,202,3.0,8.0,85,0.00,,,0.00,0,LWC V2.10 B1813,2013-04-27 05:20:00,
2013-04-27 00:21:00,49.8,46.1,30.12,SSW,210,3.0,3.0,87,0.00,,,0.09,,LWC V1.12 B30,2013-04-27 05:21:00,
2013-04-27 00:26:00,49.6,45.9,30.11,SSW,211,1.0,7.0,87,0.00,,,0.09,,LWC V1.12 B30,2013-04-27 05:26:00,
2013-04-27 00:30:00,51.1,46.7,30.12,SSW,202,3.0,8.0,85,0.00,,,0.00,0,LWC V2.10 B1813,2013-04-27 05:30:00,
2013-04-27 00:31:00,49.3,45.6,30.12,SSW,211,5.0,5.0,87,0.00,,,0.11,,LWC V1.12 B30,2013-04-27 05:31:00,
2013-04-27 00:36:00,49.2,45.5,30.11,SSW,211,2.0,4.0,87,0.00,,,0.11,,LWC V1.12 B30,2013-04-27 05:36:00,
2013-04-27 00:40:00,50.1,46.4,30.12,SSW,202,2.0,8.0,87,0.00,,,0.00,0,LWC V2.10 B1813,2013-04-27 05:40:00,
2013-04-27 00:41:00,49.1,45.7,30.12,SSW,211,2.0,6.0,88,0.00,,,0.11,,LWC V1.12 B30,2013-04-27 05:41:00,
2013-04-27 00:46:00,48.9,45.5,30.12,SSW,212,4.0,4.0,88,0.00,,,0.13,,LWC V1.12 B30,2013-04-27 05:46:00,
2013-04-27 00:50:00,50.1,46.4,30.12,SSW,202,2.0,8.0,87,0.00,,,0.00,0,LWC V2.10 B1813,2013-04-27 05:50:00,
2013-04-27 00:51:00,48.8,45.4,30.12,SSW,211,1.0,4.0,88,0.00,,,0.13,,LWC V1.12 B30,2013-04-27 05:51:00,
2013-04-27 00:56:00,48.6,45.2,30.12,SSW,210,4.0,7.0,88,0.00,,,0.13,,LWC V1.12 B30,2013-04-27 05:56:00,
2013-04-27 01:00:00,49.1,45.7,30.12,SSW,202,3.0,7.0,88,0.00,,,0.00,0,LWC V2.10 B1813,2013-04-27 06:00:00,
2013-04-27 01:01:00,48.5,45.4,30.12,SSW,210,4.0,5.0,89,0.00,,,0.16,,LWC V1.12 B30,2013-04-27 06:01:00,
2013-04-27 01:06:00,48.3,45.2,30.12,SSW,210,1.0,4.0,89,0.00,,,0.16,,LWC V1.12 B30,2013-04-27 06:06:00,
2013-04-27 01:10:00,48.7,45.6,30.12,SSW,202,3.0,7.0,89,0.00,,,0.00,0,LWC V2.10 B1813,2013-04-27 06:10:00,
2013-04-27 01:11:00,48.2,45.1,30.12,SSW,210,2.0,4.0,89,0.00,,,0.16,,LWC V1.12 B30,2013-04-27 06:11:00,
2013-04-27 01:16:00,48.0,44.9,30.12,SSW,210,3.0,6.0,89,0.00,,,0.16,,LWC V1.12 B30,2013-04-27 06:16:00,
2013-04-27 01:20:00,48.7,45.6,30.12,SSW,202,3.0,7.0,89,0.00,,,0.00,0,LWC V2.10 B1813,2013-04-27 06:20:00,
2013-04-27 01:21:00,47.8,44.7,30.12,SSW,210,4.0,6.0,89,0.00,,,0.16,,LWC V1.12 B30,2013-04-27 06:21:00,
2013-04-27 01:26:00,47.7,44.6,30.12,SSW,210,3.0,4.0,89,0.00,,,0.16,,LWC V1.12 B30,2013-04-27 06:26:00,
2013-04-27 01:30:00,48.3,45.2,30.12,SSW,202,3.0,7.0,89,0.00,,,0.00,0,LWC V2.10 B1813,2013-04-27 06:30:00,
2013-04-27 01:31:00,47.6,44.8,30.12,SSW,210,3.0,4.0,90,0.00,,,0.17,,LWC V1.12 B30,2013-04-27 06:31:00,
2013-04-27 01:36:00,47.5,44.7,30.12,SSW,210,0.0,4.0,90,0.00,,,0.17,,LWC V1.12 B30,2013-04-27 06:36:00,
2013-04-27 01:40:00,47.8,45.0,30.12,SSW,202,3.0,6.0,90,0.00,,,0.00,0,LWC V2.10 B1813,2013-04-27 06:40:00,
2013-04-27 01:41:00,47.3,44.5,30.12,SSW,210,3.0,4.0,90,0.00,,,0.17,,LWC V1.12 B30,2013-04-27 06:41:00,
2013-04-27 01:46:00,47.2,44.4,30.12,SSW,210,2.0,5.0,90,0.00,,,0.18,,LWC V1.12 B30,2013-04-27 06:46:00,
2013-04-27 01:50:00,47.8,45.0,30.12,SSW,202,3.0,6.0,90,0.00,,,0.00,0,LWC V2.10 B1813,2013-04-27 06:50:00,
2013-04-27 01:51:00,47.1,44.3,30.12,SSW,210,1.0,2.0,90,0.00,,,0.18,,LWC V1.12 B30,2013-04-27 06:51:00,
2013-04-27 01:56:00,46.9,44.1,30.12,SSW,210,1.0,3.0,90,0.00,,,0.18,,LWC V1.12 B30,2013-04-27 06:56:00,
2013-04-27 02:00:00,47.4,44.6,30.12,SSW,202,2.0,6.0,90,0.00,,,0.00,0,LWC V2.10 B1813,2013-04-27 07:00:00,
2013-04-27 02:01:00,46.8,44.0,30.12,SSW,210,0.0,4.0,90,0.00,,,0.18,,LWC V1.12 B30,2013-04-27 07:01:00,
2013-04-27 02:06:00,46.7,44.2,30.12,SSW,210,3.0,6.0,91,0.00,,,0.18,,LWC V1.12 B30,2013-04-27 07:06:00,
2013-04-27 02:10:00,47.4,44.6,30.12,SSW,202,2.0,6.0,90,0.00,,,0.00,0,LWC V2.10 B1813,2013-04-27 07:10:00,
2013-04-27 02:11:00,46.6,44.1,30.12,SSW,210,3.0,5.0,91,0.00,,,0.18,,LWC V1.12 B30,2013-04-27 07:11:00,
2013-04-27 02:16:00,46.5,44.0,30.11,SSW,210,2.0,4.0,91,0.00,,,0.19,,LWC V1.12 B30,2013-04-27 07:16:00,
2013-04-27 02:20:00,47.0,44.2,30.12,SSW,202,1.0,5.0,90,0.00,,,0.00,0,LWC V2.10 B1813,2013-04-27 07:20:00,
2013-04-27 02:21:00,46.4,43.9,30.11,SSW,210,0.0,3.0,91,0.00,,,0.19,,LWC V1.12 B30,2013-04-27 07:21:00,
2013-04-27 02:26:00,46.2,43.7,30.11,SSW,210,2.0,4.0,91,0.00,,,0.19,,LWC V1.12 B30,2013-04-27 07:26:00,
2013-04-27 02:30:00,46.7,44.2,30.11,SSW,202,2.0,6.0,91,0.00,,,0.00,0,LWC V2.10 B1813,2013-04-27 07:30:00,
2013-04-27 02:31:00,46.1,43.6,30.11,SSW,210,0.0,3.0,91,0.00,,,0.19,,LWC V1.12 B30,2013-04-27 07:31:00,
2013-04-27 02:36:00,46.0,43.5,30.11,SSW,210,2.0,3.0,91,0.00,,,0.19,,LWC V1.12 B30,2013-04-27 07:36:00,
2013-04-27 02:40:00,46.7,44.2,30.11,SSW,202,2.0,6.0,91,0.00,,,0.00,0,LWC V2.10 B1813,2013-04-27 07:40:00,
2013-04-27 02:41:00,45.9,43.4,30.11,SSW,210,1.0,3.0,91,0.00,,,0.19,,LWC V1.12 B30,2013-04-27 07:41:00,
2013-04-27 02:46:00,45.9,43.4,30.11,SSW,210,2.0,5.0,91,0.00,,,0.19,,LWC V1.12 B30,2013-04-27 07:46:00,
2013-04-27 02:50:00,46.3,43.8,30.11,SSW,202,1.0,4.0,91,0.00,,,0.00,0,LWC V2.10 B1813,2013-04-27 07:50:00,
2013-04-27 02:51:00,45.8,43.3,30.11,SSW,210,0.0,3.0,91,0.00,,,0.19,,LWC V1.12 B30,2013-04-27 07:51:00,
2013-04-27 02:56:00,45.6,43.1,30.10,SSW,210,3.0,3.0,91,0.00,,,0.19,,LWC V1.12 B30,2013-04-27 07:56:00,
2013-04-27 03:00:00,46.0,43.5,30.11,SSW,202,1.0,4.0,91,0.00,,,0.00,0,LWC V2.10 B1813,2013-04-27 08:00:00,
2013-04-27 03:01:00,45.4,42.9,30.10,SSW,210,3.0,4.0,91,0.00,,,0.19,,LWC V1.12 B30,2013-04-27 08:01:00,
2013-04-27 03:06:00,45.2,43.0,30.10,SSW,210,4.0,5.0,92,0.00,,,0.19,,LWC V1.12 B30,2013-04-27 08:06:00,
2013-04-27 03:10:00,46.0,43.5,30.11,SSW,202,1.0,4.0,91,0.00,,,0.00,0,LWC V2.10 B1813,2013-04-27 08:10:00,
2013-04-27 03:11:00,44.9,42.4,30.10,SSW,210,2.0,5.0,91,0.00,,,0.19,,LWC V1.12 B30,2013-04-27 08:11:00,
2013-04-27 03:16:00,44.6,42.4,30.09,SSW,210,0.0,4.0,92,0.00,,,0.19,,LWC V1.12 B30,2013-04-27 08:16:00,
2013-04-27 03:20:00,45.7,43.5,30.10,SSW,202,2.0,5.0,92,0.00,,,0.00,0,LWC V2.10 B1813,2013-04-27 08:20:00,
2013-04-27 03:21:00,44.5,42.3,30.09,SSW,210,0.0,2.0,92,0.00,,,0.19,,LWC V1.12 B30,2013-04-27 08:21:00,
2013-04-27 03:26:00,44.4,42.2,30.09,SSW,210,2.0,4.0,92,0.00,,,0.19,,LWC V1.12 B30,2013-04-27 08:26:00,
2013-04-27 03:30:00,45.1,42.9,30.09,SSW,202,2.0,5.0,92,0.00,,,0.00,0,LWC V2.10 B1813,2013-04-27 08:30:00,
2013-04-27 03:31:00,44.3,42.1,30.09,SSW,210,2.0,3.0,92,0.00,,,0.19,,LWC V1.12 B30,2013-04-27 08:31:00,
2013-04-27 03:36:00,44.2,42.0,30.09,SSW,210,1.0,3.0,92,0.00,,,0.19,,LWC V1.12 B30,2013-04-27 08:36:00,
2013-04-27 03:40:00,44.5,42.3,30.09,SSW,202,1.0,4.0,92,0.00,,,0.00,0,LWC V2.10 B1813,2013-04-27 08:40:00,
2013-04-27 03:41:00,44.1,41.9,30.09,SSW,210,2.0,2.0,92,0.00,,,0.19,,LWC V1.12 B30,2013-04-27 08:41:00,
2013-04-27 03:46:00,44.0,41.8,30.09,SSW,210,0.0,3.0,92,0.00,,,0.19,,LWC V1.12 B30,2013-04-27 08:46:00,
2013-04-27 03:50:00,44.1,41.9,30.09,SSW,202,1.0,6.0,92,0.00,,,0.00,0,LWC V2.10 B1813,2013-04-27 08:50:00,
2013-04-27 03:51:00,43.9,41.7,30.09,SSW,210,1.0,2.0,92,0.00,,,0.19,,LWC V1.12 B30,2013-04-27 08:51:00,
2013-04-27 03:56:00,43.8,41.6,30.09,SSW,210,1.0,4.0,92,0.00,,,0.19,,LWC V1.12 B30,2013-04-27 08:56:00,
2013-04-27 04:00:00,44.1,41.9,30.09,SSW,202,1.0,6.0,92,0.00,,,0.00,0,LWC V2.10 B1813,2013-04-27 09:00:00,
2013-04-27 04:01:00,43.7,41.8,30.09,SSW,210,4.0,5.0,93,0.00,,,0.19,,LWC V1.12 B30,2013-04-27 09:01:00,
2013-04-27 04:06:00,43.4,41.5,30.08,SSW,210,3.0,4.0,93,0.00,,,0.19,,LWC V1.12 B30,2013-04-27 09:06:00,
2013-04-27 04:10:00,43.9,41.7,30.09,SSW,202,1.0,4.0,92,0.00,,,0.00,0,LWC V2.10 B1813,2013-04-27 09:10:00,
2013-04-27 04:11:00,43.3,41.4,30.08,SSW,210,1.0,3.0,93,0.00,,,0.19,,LWC V1.12 B30,2013-04-27 09:11:00,
2013-04-27 04:16:00,43.3,41.4,30.08,SSW,210,0.0,1.0,93,0.00,,,0.19,,LWC V1.12 B30,2013-04-27 09:16:00,
2013-04-27 04:20:00,43.4,41.5,30.08,SSW,202,2.0,5.0,93,0.00,,,0.00,0,LWC V2.10 B1813,2013-04-27 09:20:00,
2013-04-27 04:21:00,43.3,41.4,30.08,SSW,210,2.0,3.0,93,0.00,,,0.19,,LWC V1.12 B30,2013-04-27 09:21:00,
2013-04-27 04:26:00,43.3,41.4,30.08,SSW,210,0.0,2.0,93,0.00,,,0.19,,LWC V1.12 B30,2013-04-27 09:26:00,
2013-04-27 04:30:00,43.4,41.5,30.08,SSW,202,2.0,5.0,93,0.00,,,0.00,0,LWC V2.10 B1813,2013-04-27 09:30:00,
2013-04-27 04:31:00,43.1,41.2,30.08,SSW,210,1.0,3.0,93,0.00,,,0.19,,LWC V1.12 B30,2013-04-27 09:31:00,
2013-04-27 04:36:00,42.9,41.0,30.07,SSW,210,1.0,2.0,93,0.00,,,0.19,,LWC V1.12 B30,2013-04-27 09:36:00,
2013-04-27 04:40:00,43.3,41.4,30.08,SSW,202,1.0,4.0,93,0.00,,,0.00,0,LWC V2.10 B1813,2013-04-27 09:40:00,
2013-04-27 04:41:00,42.7,40.8,30.07,SSW,210,3.0,4.0,93,0.00,,,0.19,,LWC V1.12 B30,2013-04-27 09:41:00,
2013-04-27 04:46:00,42.4,40.5,30.07,SSW,210,3.0,4.0,93,0.00,,,0.19,,LWC V1.12 B30,2013-04-27 09:46:00,
2013-04-27 04:50:00,42.9,41.0,30.07,SSW,202,1.0,4.0,93,0.00,,,0.00,0,LWC V2.10 B1813,2013-04-27 09:50:00,
2013-04-27 04:51:00,42.1,40.2,30.07,SSW,210,1.0,2.0,93,0.00,,,0.19,,LWC V1.12 B30,2013-04-27 09:51:00,
2013-04-27 04:56:00,41.8,39.9,30.07,SSW,211,2.0,3.0,93,0.00,,,0.19,,LWC V1.12 B30,2013-04-27 09:56:00,
2013-04-27 05:00:00,42.9,41.0,30.07,SSW,202,1.0,4.0,93,0.00,,,0.00,0,LWC V2.10 B1813,2013-04-27 10:00:00,
2013-04-27 05:01:00,41.6,39.7,30.07,SSW,210,2.0,4.0,93,0.00,,,0.19,,LWC V1.12 B30,2013-04-27 10:01:00,
2013-04-27 05:06:00,41.5,39.6,30.07,SSW,210,1.0,3.0,93,0.00,,,0.19,,LWC V1.12 B30,2013-04-27 10:06:00,
2013-04-27 05:10:00,42.0,40.1,30.07,SSW,202,2.0,4.0,93,0.00,,,0.00,0,LWC V2.10 B1813,2013-04-27 10:10:00,
2013-04-27 05:11:00,41.4,39.5,30.07,SSW,210,3.0,4.0,93,0.00,,,0.19,,LWC V1.12 B30,2013-04-27 10:11:00,
2013-04-27 05:16:00,41.3,39.4,30.07,SSW,210,2.0,3.0,93,0.00,,,0.20,,LWC V1.12 B30,2013-04-27 10:16:00,
2013-04-27 05:20:00,41.5,39.6,30.07,SSW,202,1.0,4.0,93,0.00,,,0.00,0,LWC V2.10 B1813,2013-04-27 10:20:00,
2013-04-27 05:21:00,41.2,39.3,30.06,SSW,210,1.0,4.0,93,0.00,,,0.20,,LWC V1.12 B30,2013-04-27 10:21:00,
2013-04-27 05:26:00,41.1,39.2,30.06,SSW,210,0.0,0.0,93,0.00,,,0.20,,LWC V1.12 B30,2013-04-27 10:26:00,
2013-04-27 05:30:00,41.5,39.6,30.07,SSW,202,1.0,4.0,93,0.00,,,0.00,0,LWC V2.10 B1813,2013-04-27 10:30:00,
2013-04-27 05:31:00,41.1,39.2,30.07,SSW,210,0.0,0.0,93,0.00,,,0.20,,LWC V1.12 B30,2013-04-27 10:31:00,
2013-04-27 05:36:00,41.1,39.5,30.07,SSW,210,0.0,0.0,94,0.00,,,0.20,,LWC V1.12 B30,2013-04-27 10:36:00,
2013-04-27 05:40:00,41.2,39.3,30.07,SSW,202,1.0,4.0,93,0.00,,,0.00,0,LWC V2.10 B1813,2013-04-27 10:40:00,
2013-04-27 05:41:00,40.9,39.3,30.07,SSW,210,0.0,0.0,94,0.00,,,0.20,,LWC V1.12 B30,2013-04-27 10:41:00,
2013-04-27 05:46:00,40.8,38.9,30.07,SSW,210,1.0,4.0,93,0.00,,,0.20,,LWC V1.12 B30,2013-04-27 10:46:00,
2013-04-27 05:50:00,41.0,39.1,30.07,SSW,202,0.0,3.0,93,0.00,,,0.00,0,LWC V2.10 B1813,2013-04-27 10:50:00,
2013-04-27 05:51:00,40.8,39.2,30.07,SSW,210,0.0,3.0,94,0.00,,,0.20,,LWC V1.12 B30,2013-04-27 10:51:00,
2013-04-27 05:56:00,40.9,39.3,30.07,SSW,210,0.0,0.0,94,0.00,,,0.20,,LWC V1.12 B30,2013-04-27 10:56:00,
2013-04-27 06:00:00,41.0,39.1,30.07,SSW,202,0.0,3.0,93,0.00,,,0.00,0,LWC V2.10 B1813,2013-04-27 11:00:00,
2013-04-27 06:01:00,40.9,39.3,30.07,SSW,210,0.0,1.0,94,0.00,,,0.21,,LWC V1.12 B30,2013-04-27 11:01:00,
2013-04-27 06:06:00,41.0,39.4,30.07,SSW,210,0.0,1.0,94,0.00,,,0.21,,LWC V1.12 B30,2013-04-27 11:06:00,
2013-04-27 06:10:00,40.8,39.2,30.07,SSW,202,1.0,4.0,94,0.00,,,0.00,0,LWC V2.10 B1813,2013-04-27 11:10:00,
2013-04-27 06:11:00,40.9,39.3,30.08,SSW,210,3.0,3.0,94,0.00,,,0.21,,LWC V1.12 B30,2013-04-27 11:11:00,
2013-04-27 06:16:00,40.6,39.0,30.07,SSW,210,3.0,3.0,94,0.00,,,0.26,,LWC V1.12 B30,2013-04-27 11:16:00,
2013-04-27 06:20:00,40.9,39.3,30.08,SSW,202,1.0,3.0,94,0.00,,,0.00,0,LWC V2.10 B1813,2013-04-27 11:20:00,
2013-04-27 06:21:00,40.5,38.9,30.08,SSW,210,1.0,4.0,94,0.00,,,0.26,,LWC V1.12 B30,2013-04-27 11:21:00,
2013-04-27 06:26:00,40.4,38.8,30.08,SSW,210,0.0,3.0,94,0.00,,,0.26,,LWC V1.12 B30,2013-04-27 11:26:00,
2013-04-27 06:30:00,40.9,39.3,30.08,SSW,202,1.0,3.0,94,0.00,,,0.00,0,LWC V2.10 B1813,2013-04-27 11:30:00,
2013-04-27 06:31:00,40.2,38.6,30.08,SSW,210,0.0,2.0,94,0.00,,,0.29,,LWC V1.12 B30,2013-04-27 11:31:00,
2013-04-27 06:36:00,40.0,38.4,30.08,SSW,210,0.0,0.0,94,0.00,,,0.29,,LWC V1.12 B30,2013-04-27 11:36:00,
2013-04-27 06:40:00,40.5,38.9,30.08,SSW,202,1.0,4.0,94,0.00,,,0.00,0,LWC V2.10 B1813,2013-04-27 11:40:00,
2013-04-27 06:41:00,40.0,38.4,30.08,SSW,210,0.0,1.0,94,0.00,,,0.29,,LWC V1.12 B30,2013-04-27 11:41:00,
2013-04-27 06:46:00,39.7,38.1,30.08,SSW,210,0.0,2.0,94,0.00,,,0.29,,LWC V1.12 B30,2013-04-27 11:46:00,
2013-04-27 06:50:00,40.0,38.4,30.08,SSW,202,1.0,3.0,94,0.00,,,0.00,0,LWC V2.10 B1813,2013-04-27 11:50:00,
2013-04-27 06:51:00,39.7,38.1,30.08,SSW,210,0.0,0.0,94,0.00,,,0.29,,LWC V1.12 B30,2013-04-27 11:51:00,
2013-04-27 06:56:00,39.7,38.1,30.08,SSW,210,0.0,0.0,94,0.00,,,0.29,,LWC V1.12 B30,2013-04-27 11:56:00,
2013-04-27 07:00:00,40.0,38.4,30.08,SSW,202,1.0,3.0,94,0.00,,,0.00,0,LWC V2.10 B1813,2013-04-27 12:00:00,
2013-04-27 07:01:00,39.6,38.0,30.08,SSW,210,0.0,1.0,94,0.00,,,0.32,,LWC V1.12 B30,2013-04-27 12:01:00,
2013-04-27 07:06:00,39.5,37.9,30.08,SSW,210,0.0,0.0,94,0.00,,,0.32,,LWC V1.12 B30,2013-04-27 12:06:00,
2013-04-27 07:10:00,39.7,38.1,30.08,SSW,202,0.0,2.0,94,0.00,,,0.00,0,LWC V2.10 B1813,2013-04-27 12:10:00,
2013-04-27 07:11:00,39.5,37.9,30.08,SSW,210,0.0,0.0,94,0.00,,,0.32,,LWC V1.12 B30,2013-04-27 12:11:00,
2013-04-27 07:16:00,39.6,38.0,30.08,SSW,210,0.0,0.0,94,0.00,,,0.32,,LWC V1.12 B30,2013-04-27 12:16:00,
2013-04-27 07:20:00,39.5,37.9,30.08,SSW,202,0.0,1.0,94,0.00,,,0.00,0,LWC V2.10 B1813,2013-04-27 12:20:00,
2013-04-27 07:21:00,39.7,38.1,30.08,SSW,210,0.0,0.0,94,0.00,,,0.32,,LWC V1.12 B30,2013-04-27 12:21:00,
2013-04-27 07:26:00,39.9,38.3,30.08,SSW,210,1.0,3.0,94,0.00,,,0.32,,LWC V1.12 B30,2013-04-27 12:26:00,
2013-04-27 07:30:00,39.5,37.9,30.08,SSW,202,0.0,1.0,94,0.00,,,0.00,0,LWC V2.10 B1813,2013-04-27 12:30:00,
2013-04-27 07:31:00,40.1,38.5,30.09,SSW,210,0.0,5.0,94,0.00,,,0.32,,LWC V1.12 B30,2013-04-27 12:31:00,
2013-04-27 07:36:00,40.3,38.7,30.08,SSW,210,2.0,3.0,94,0.00,,,0.32,,LWC V1.12 B30,2013-04-27 12:36:00,
2013-04-27 07:40:00,39.7,38.1,30.08,SSW,202,0.0,4.0,94,0.00,,,0.00,0,LWC V2.10 B1813,2013-04-27 12:40:00,
2013-04-27 07:41:00,40.6,39.0,30.09,SSW,210,0.0,1.0,94,0.00,,,0.32,,LWC V1.12 B30,2013-04-27 12:41:00,
2013-04-27 07:46:00,41.1,39.5,30.09,SSW,210,0.0,0.0,94,0.00,,,0.32,,LWC V1.12 B30,2013-04-27 12:46:00,
2013-04-27 07:50:00,40.4,38.8,30.09,SSW,202,1.0,5.0,94,0.00,,,0.00,0,LWC V2.10 B1813,2013-04-27 12:50:00,
2013-04-27 07:51:00,41.2,39.6,30.09,SSW,210,2.0,4.0,94,0.00,,,0.32,,LWC V1.12 B30,2013-04-27 12:51:00,
2013-04-27 07:56:00,41.6,40.0,30.09,SSW,210,4.0,4.0,94,0.00,,,0.32,,LWC V1.12 B30,2013-04-27 12:56:00,
2013-04-27 08:00:00,40.4,38.8,30.09,SSW,202,1.0,5.0,94,0.00,,,0.00,0,LWC V2.10 B1813,2013-04-27 13:00:00,
2013-04-27 08:01:00,42.2,40.6,30.10,SSW,210,2.0,3.0,94,0.00,,,0.32,,LWC V1.12 B30,2013-04-27 13:01:00,
2013-04-27 08:06:00,42.0,40.4,30.10,SSW,210,3.0,6.0,94,0.00,,,0.32,,LWC V1.12 B30,2013-04-27 13:06:00,
2013-04-27 08:10:00,41.4,39.8,30.10,SSW,202,1.0,5.0,94,0.00,,,0.00,0,LWC V2.10 B1813,2013-04-27 13:10:00,
2013-04-27 08:11:00,42.3,40.7,30.10,SSW,210,0.0,3.0,94,0.00,,,0.32,,LWC V1.12 B30,2013-04-27 13:11:00,
2013-04-27 08:16:00,42.7,41.1,30.10,SSW,210,0.0,4.0,94,0.00,,,0.32,,LWC V1.12 B30,2013-04-27 13:16:00,
2013-04-27 08:20:00,42.2,40.6,30.10,SSW,202,2.0,6.0,94,0.00,,,0.00,0,LWC V2.10 B1813,2013-04-27 13:20:00,
2013-04-27 08:21:00,43.1,41.8,30.10,SSW,210,1.0,4.0,95,0.00,,,0.32,,LWC V1.12 B30,2013-04-27 13:21:00,
2013-04-27 08:26:00,43.1,41.8,30.10,SSW,210,1.0,6.0,95,0.00,,,0.32,,LWC V1.12 B30,2013-04-27 13:26:00,
2013-04-27 08:30:00,42.2,40.6,30.10,SSW,202,2.0,6.0,94,0.00,,,0.00,0,LWC V2.10 B1813,2013-04-27 13:30:00,
2013-04-27 08:31:00,43.3,41.7,30.10,SSW,210,2.0,6.0,94,0.00,,,0.32,,LWC V1.12 B30,2013-04-27 13:31:00,
2013-04-27 08:36:00,43.6,42.0,30.10,SSW,210,3.0,5.0,94,0.00,,,0.32,,LWC V1.12 B30,2013-04-27 13:36:00,
2013-04-27 08:40:00,43.1,41.5,30.10,SSW,202,2.0,6.0,94,0.00,,,0.00,0,LWC V2.10 B1813,2013-04-27 13:40:00,
2013-04-27 08:41:00,43.8,42.5,30.10,SSW,210,4.0,6.0,95,0.00,,,0.32,,LWC V1.12 B30,2013-04-27 13:41:00,
2013-04-27 08:48:00,44.0,42.4,30.10,SSW,210,3.0,4.0,94,0.00,,,0.32,,LWC V1.12 B30,2013-04-27 13:48:00,
2013-04-27 08:50:00,43.6,42.0,30.10,SSW,202,2.0,6.0,94,0.00,,,0.00,0,LWC V2.10 B1813,2013-04-27 13:50:00,
2013-04-27 08:53:00,44.5,42.9,30.10,SSW,210,4.0,6.0,94,0.00,,,0.32,,LWC V1.12 B30,2013-04-27 13:53:00,
2013-04-27 08:58:00,45.0,43.7,30.10,SSW,210,0.0,3.0,95,0.00,,,0.32,,LWC V1.12 B30,2013-04-27 13:58:00,
2013-04-27 09:00:00,43.6,42.0,30.10,SSW,202,2.0,6.0,94,0.00,,,0.00,0,LWC V2.10 B1813,2013-04-27 14:00:00,
2013-04-27 09:03:00,45.2,43.6,30.10,SSW,210,3.0,4.0,94,0.00,,,0.32,,LWC V1.12 B30,2013-04-27 14:03:00,
2013-04-27 09:08:00,45.5,43.9,30.10,SSW,210,5.0,5.0,94,0.00,,,0.32,,LWC V1.12 B30,2013-04-27 14:08:00,
2013-04-27 09:10:00,44.4,43.1,30.10,SSW,202,2.0,6.0,95,0.00,,,0.00,0,LWC V2.10 B1813,2013-04-27 14:10:00,
2013-04-27 09:13:00,45.7,44.1,30.10,SSW,209,5.0,6.0,94,0.00,,,0.32,,LWC V1.12 B30,2013-04-27 14:13:00,
2013-04-27 09:18:00,46.1,44.5,30.09,SSW,207,4.0,5.0,94,0.00,,,0.32,,LWC V1.12 B30,2013-04-27 14:18:00,
2013-04-27 09:20:00,45.4,43.8,30.09,SSW,202,3.0,6.0,94,0.00,,,0.00,0,LWC V2.10 B1813,2013-04-27 14:20:00,
2013-04-27 09:23:00,46.5,44.9,30.10,SSW,207,3.0,7.0,94,0.00,,,0.32,,LWC V1.12 B30,2013-04-27 14:23:00,
2013-04-27 09:28:00,46.8,45.4,30.09,SSW,207,4.0,4.0,95,0.00,,,0.32,,LWC V1.12 B30,2013-04-27 14:28:00,
2013-04-27 09:30:00,45.4,43.8,30.09,SSW,202,3.0,6.0,94,0.00,,,0.00,0,LWC V2.10 B1813,2013-04-27 14:30:00,
2013-04-27 09:33:00,47.1,45.5,30.09,SSW,205,4.0,7.0,94,0.00,,,0.32,,LWC V1.12 B30,2013-04-27 14:33:00,
2013-04-27 09:38:00,47.1,45.5,30.09,SSW,205,4.0,7.0,94,0.00,,,0.32,,LWC V1.12 B30,2013-04-27 14:38:00,
2013-04-27 09:40:00,46.4,45.0,30.09,SSW,202,3.0,7.0,95,0.00,,,0.00,0,LWC V2.10 B1813,2013-04-27 14:40:00,
2013-04-27 09:43:00,47.3,45.9,30.09,SSW,205,2.0,7.0,95,0.00,,,0.32,,LWC V1.12 B30,2013-04-27 14:43:00,
2013-04-27 09:48:00,47.3,45.9,30.09,SSW,204,3.0,10.0,95,0.00,,,0.32,,LWC V1.12 B30,2013-04-27 14:48:00,
2013-04-27 09:50:00,47.1,45.7,30.09,SSW,202,4.0,7.0,95,0.00,,,0.00,0,LWC V2.10 B1813,2013-04-27 14:50:00,
2013-04-27 09:53:00,47.8,46.2,30.09,SSW,204,3.0,5.0,94,0.00,,,0.32,,LWC V1.12 B30,2013-04-27 14:53:00,
2013-04-27 09:58:00,48.0,46.6,30.09,SSW,203,2.0,7.0,95,0.00,,,0.32,,LWC V1.12 B30,2013-04-27 14:58:00,
2013-04-27 10:00:00,47.1,45.7,30.09,SSW,202,4.0,7.0,95,0.00,,,0.00,0,LWC V2.10 B1813,2013-04-27 15:00:00,
2013-04-27 10:03:00,48.4,46.8,30.09,SSW,204,4.0,5.0,94,0.00,,,0.32,,LWC V1.12 B30,2013-04-27 15:03:00,
2013-04-27 10:08:00,48.5,46.9,30.09,SSW,193,6.0,7.0,94,0.00,,,0.32,,LWC V1.12 B30,2013-04-27 15:08:00,
2013-04-27 10:10:00,47.6,46.2,30.09,SSW,202,3.0,10.0,95,0.00,,,0.00,0,LWC V2.10 B1813,2013-04-27 15:10:00,
2013-04-27 10:13:00,48.9,47.2,30.09,SSW,193,4.0,5.0,94,0.00,,,0.32,,LWC V1.12 B30,2013-04-27 15:13:00,
2013-04-27 10:18:00,48.9,47.2,30.09,SSW,199,6.0,7.0,94,0.00,,,0.32,,LWC V1.12 B30,2013-04-27 15:18:00,
2013-04-27 10:20:00,48.5,46.8,30.09,SSW,202,3.0,10.0,94,0.00,,,0.00,0,LWC V2.10 B1813,2013-04-27 15:20:00,
2013-04-27 10:23:00,49.2,47.5,30.09,SSW,199,4.0,7.0,94,0.00,,,0.32,,LWC V1.12 B30,2013-04-27 15:23:00,
2013-04-27 10:28:00,49.8,48.1,30.08,SSW,199,0.0,3.0,94,0.00,,,0.32,,LWC V1.12 B30,2013-04-27 15:28:00,
2013-04-27 10:30:00,48.5,46.8,30.09,SSW,202,3.0,10.0,94,0.00,,,0.00,0,LWC V2.10 B1813,2013-04-27 15:30:00,
2013-04-27 10:33:00,50.6,48.9,30.08,SSW,207,3.0,8.0,94,0.00,,,0.32,,LWC V1.12 B30,2013-04-27 15:33:00,
2013-04-27 10:38:00,50.7,49.0,30.08,SSW,207,0.0,5.0,94,0.00,,,0.32,,LWC V1.12 B30,2013-04-27 15:38:00,
2013-04-27 10:40:00,49.2,47.6,30.08,SSW,202,3.0,10.0,94,0.00,,,0.00,0,LWC V2.10 B1813,2013-04-27 15:40:00,
2013-04-27 10:43:00,51.5,49.8,30.08,SSW,198,0.0,6.0,94,0.00,,,0.32,,LWC V1.12 B30,2013-04-27 15:43:00,
2013-04-27 10:48:00,52.1,50.4,30.08,SSE,167,2.0,6.0,94,0.00,,,0.32,,LWC V1.12 B30,2013-04-27 15:48:00,
2013-04-27 10:50:00,50.8,49.1,30.08,SSW,202,3.0,8.0,94,0.00,,,0.00,0,LWC V2.10 B1813,2013-04-27 15:50:00,
2013-04-27 10:53:00,52.6,50.6,30.08,South,173,0.0,4.0,93,0.00,,,0.32,,LWC V1.12 B30,2013-04-27 15:53:00,
2013-04-27 10:58:00,52.5,50.2,30.08,South,182,3.0,7.0,92,0.00,,,0.32,,LWC V1.12 B30,2013-04-27 15:58:00,
2013-04-27 11:00:00,50.8,49.1,30.08,SSW,202,3.0,8.0,94,0.00,,,0.00,0,LWC V2.10 B1813,2013-04-27 16:00:00,
2013-04-27 11:03:00,52.6,50.0,30.08,SSW,193,2.0,10.0,91,0.00,,,0.32,,LWC V1.12 B30,2013-04-27 16:03:00,
2013-04-27 11:08:00,52.8,50.2,30.08,SSW,202,2.0,6.0,91,0.00,,,0.32,,LWC V1.12 B30,2013-04-27 16:08:00,
2013-04-27 11:10:00,52.4,50.1,30.08,South,180,3.0,8.0,92,0.00,,,0.00,0,LWC V2.10 B1813,2013-04-27 16:10:00,
2013-04-27 11:13:00,53.4,50.5,30.07,SW,216,6.0,11.0,90,0.00,,,0.32,,LWC V1.12 B30,2013-04-27 16:13:00,
2013-04-27 11:18:00,54.4,51.2,30.07,SSW,212,4.0,7.0,89,0.00,,,0.32,,LWC V1.12 B30,2013-04-27 16:18:00,
2013-04-27 11:20:00,52.9,49.7,30.07,SSW,202,4.0,11.0,89,0.00,,,0.00,0,LWC V2.10 B1813,2013-04-27 16:20:00,
2013-04-27 11:23:00,55.3,51.8,30.07,SSW,213,5.0,6.0,88,0.00,,,0.32,,LWC V1.12 B30,2013-04-27 16:23:00,
2013-04-27 11:28:00,56.5,52.4,30.07,SSW,196,4.0,5.0,86,0.00,,,0.32,,LWC V1.12 B30,2013-04-27 16:28:00,
2013-04-27 11:30:00,52.9,49.7,30.07,SSW,202,4.0,11.0,89,0.00,,,0.00,0,LWC V2.10 B1813,2013-04-27 16:30:00,
2013-04-27 11:33:00,57.3,52.2,30.07,SSW,196,0.0,6.0,83,0.00,,,0.32,,LWC V1.12 B30,2013-04-27 16:33:00,
2013-04-27 11:38:00,57.5,51.7,30.07,SSW,213,6.0,7.0,81,0.00,,,0.32,,LWC V1.12 B30,2013-04-27 16:38:00,
2013-04-27 11:40:00,55.1,50.7,30.07,SSW,202,3.0,10.0,85,0.00,,,0.00,0,LWC V2.10 B1813,2013-04-27 16:40:00,
2013-04-27 11:43:00,57.9,51.8,30.07,SW,223,4.0,7.0,80,0.00,,,0.32,,LWC V1.12 B30,2013-04-27 16:43:00,
2013-04-27 11:48:00,58.7,52.5,30.07,SSW,210,3.0,6.0,80,0.00,,,0.32,,LWC V1.12 B30,2013-04-27 16:48:00,
2013-04-27 11:50:00,57.5,51.4,30.07,SSW,202,4.0,11.0,80,0.00,,,0.00,0,LWC V2.10 B1813,2013-04-27 16:50:00,
2013-04-27 11:53:00,59.5,52.6,30.07,SSW,205,0.0,4.0,78,0.00,,,0.32,,LWC V1.12 B30,2013-04-27 16:53:00,
2013-04-27 11:58:00,60.5,53.2,30.06,SSW,207,3.0,7.0,77,0.00,,,0.32,,LWC V1.12 B30,2013-04-27 16:58:00,
2013-04-27 12:00:00,57.5,51.4,30.07,SSW,202,4.0,11.0,80,0.00,,,0.00,0,LWC V2.10 B1813,2013-04-27 17:00:00,
2013-04-27 12:03:00,61.0,53.0,30.06,SSW,208,2.0,6.0,75,0.00,,,0.33,,LWC V1.12 B30,2013-04-27 17:03:00,
2013-04-27 12:08:00,61.7,53.3,30.06,SW,217,1.0,6.0,74,0.00,,,0.33,,LWC V1.12 B30,2013-04-27 17:08:00,
2013-04-27 12:10:00,59.3,51.7,30.06,SSW,202,3.0,9.0,76,0.00,,,0.00,0,LWC V2.10 B1813,2013-04-27 17:10:00,
2013-04-27 12:13:00,62.2,53.1,30.06,SSW,213,3.0,5.0,72,0.00,,,0.33,,LWC V1.12 B30,2013-04-27 17:13:00,
2013-04-27 12:18:00,62.7,53.2,30.06,South,169,4.0,6.0,71,0.00,,,0.33,,LWC V1.12 B30,2013-04-27 17:18:00,
2013-04-27 12:20:00,61.5,52.4,30.06,SSW,202,3.0,9.0,72,0.00,,,0.00,0,LWC V2.10 B1813,2013-04-27 17:20:00,
2013-04-27 12:23:00,63.6,53.6,30.06,South,173,6.0,9.0,70,0.00,,,0.33,,LWC V1.12 B30,2013-04-27 17:23:00,
2013-04-27 12:28:00,64.4,53.6,30.06,South,176,5.0,5.0,68,0.00,,,0.33,,LWC V1.12 B30,2013-04-27 17:28:00,
2013-04-27 12:30:00,61.5,52.4,30.06,SSW,202,3.0,9.0,72,0.00,,,0.00,0,LWC V2.10 B1813,2013-04-27 17:30:00,
2013-04-27 12:33:00,65.4,54.1,30.05,South,182,6.0,6.0,67,0.00,,,0.37,,LWC V1.12 B30,2013-04-27 17:33:00,
2013-04-27 12:38:00,65.4,53.3,30.05,South,187,0.0,6.0,65,0.00,,,0.37,,LWC V1.12 B30,2013-04-27 17:38:00,
2013-04-27 12:40:00,63.3,52.6,30.06,South,180,3.0,9.0,68,0.00,,,0.00,0,LWC V2.10 B1813,2013-04-27 17:40:00,
2013-04-27 12:43:00,66.3,53.7,30.05,SSW,196,5.0,9.0,64,0.00,,,0.37,,LWC V1.12 B30,2013-04-27 17:43:00,
2013-04-27 12:48:00,66.7,53.3,30.04,SSW,200,3.0,4.0,62,0.00,,,0.43,,LWC V1.12 B30,2013-04-27 17:48:00,
2013-04-27 12:50:00,65.5,53.0,30.05,South,180,3.0,9.0,64,0.00,,,0.00,0,LWC V2.10 B1813,2013-04-27 17:50:00,
2013-04-27 12:53:00,67.2,53.3,30.04,SSW,201,6.0,6.0,61,0.00,,,0.43,,LWC V1.12 B30,2013-04-27 17:53:00,
2013-04-27 12:58:00,67.1,51.8,30.03,SW,214,2.0,8.0,58,0.00,,,0.43,,LWC V1.12 B30,2013-04-27 17:58:00,
2013-04-27 13:00:00,65.5,53.0,30.05,South,180,3.0,9.0,64,0.00,,,0.00,0,LWC V2.10 B1813,2013-04-27 18:00:00,
2013-04-27 13:03:00,67.3,50.1,30.03,SSW,204,0.0,10.0,54,0.00,,,0.44,,LWC V1.12 B30,2013-04-27 18:03:00,
2013-04-27 13:08:00,68.2,51.9,30.03,South,191,1.0,7.0,56,0.00,,,0.44,,LWC V1.12 B30,2013-04-27 18:08:00,
2013-04-27 13:10:00,67.0,52.2,30.03,SSW,202,3.0,11.0,59,0.00,,,0.00,0,LWC V2.10 B1813,2013-04-27 18:10:00,
2013-04-27 13:13:00,68.9,51.6,30.02,SSW,197,4.0,6.0,54,0.00,,,0.44,,LWC V1.12 B30,2013-04-27 18:13:00,
2013-04-27 13:18:00,69.4,51.5,30.02,SSW,199,2.0,7.0,53,0.00,,,0.45,,LWC V1.12 B30,2013-04-27 18:18:00,
2013-04-27 13:20:00,68.0,50.7,30.02,SSW,202,3.0,10.0,54,0.00,,,0.00,0,LWC V2.10 B1813,2013-04-27 18:20:00,
2013-04-27 13:23:00,69.6,51.2,30.02,SSW,209,2.0,5.0,52,0.00,,,0.45,,LWC V1.12 B30,2013-04-27 18:23:00,
2013-04-27 13:28:00,70.2,49.6,30.01,SSW,202,0.0,6.0,48,0.00,,,0.45,,LWC V1.12 B30,2013-04-27 18:28:00,
2013-04-27 13:30:00,68.0,50.7,30.02,SSW,202,3.0,10.0,54,0.00,,,0.00,0,LWC V2.10 B1813,2013-04-27 18:30:00,
2013-04-27 13:33:00,70.8,50.1,30.01,SSW,210,0.0,6.0,48,0.00,,,0.45,,LWC V1.12 B30,2013-04-27 18:33:00,
2013-04-27 13:38:00,70.8,47.2,30.01,WSW,246,1.0,6.0,43,0.00,,,0.45,,LWC V1.12 B30,2013-04-27 18:38:00,
2013-04-27 13:40:00,69.6,49.6,30.01,SSW,202,3.0,10.0,49,0.00,,,0.00,0,LWC V2.10 B1813,2013-04-27 18:40:00,
2013-04-27 13:43:00,71.3,49.4,30.01,SSW,207,11.0,13.0,46,0.00,,,0.45,,LWC V1.12 B30,2013-04-27 18:43:00,
2013-04-27 13:48:00,70.8,46.6,30.00,SW,227,5.0,5.0,42,0.00,,,0.45,,LWC V1.12 B30,2013-04-27 18:48:00,
2013-04-27 13:50:00,70.8,47.2,30.01,SSW,202,3.0,13.0,43,0.00,,,0.00,0,LWC V2.10 B1813,2013-04-27 18:50:00,
2013-04-27 13:53:00,70.9,46.0,30.00,SW,225,7.0,7.0,41,0.00,,,0.45,,LWC V1.12 B30,2013-04-27 18:53:00,
2013-04-27 13:58:00,71.0,45.5,30.00,SW,216,6.0,7.0,40,0.00,,,0.45,,LWC V1.12 B30,2013-04-27 18:58:00,
2013-04-27 14:00:00,70.8,47.2,30.01,SSW,202,3.0,13.0,43,0.00,,,0.00,0,LWC V2.10 B1813,2013-04-27 19:00:00,
2013-04-27 14:03:00,71.2,45.6,30.00,SW,215,2.0,5.0,40,0.00,,,0.45,,LWC V1.12 B30,2013-04-27 19:03:00,
2013-04-27 14:08:00,71.3,45.7,30.00,SW,222,3.0,6.0,40,0.00,,,0.45,,LWC V1.12 B30,2013-04-27 19:08:00,
2013-04-27 14:10:00,70.9,46.0,30.00,SW,225,3.0,10.0,41,0.00,,,0.00,0,LWC V2.10 B1813,2013-04-27 19:10:00,
2013-04-27 14:13:00,71.7,44.7,30.00,SW,221,0.0,2.0,38,0.00,,,0.45,,LWC V1.12 B30,2013-04-27 19:13:00,
2013-04-27 14:18:00,71.7,44.7,29.99,West,260,3.0,7.0,38,0.00,,,0.45,,LWC V1.12 B30,2013-04-27 19:18:00,
2013-04-27 14:20:00,71.3,45.0,29.99,SW,225,2.0,7.0,39,0.00,,,0.00,0,LWC V2.10 B1813,2013-04-27 19:20:00,
2013-04-27 14:23:00,71.5,43.8,29.99,West,259,0.0,4.0,37,0.00,,,0.45,,LWC V1.12 B30,2013-04-27 19:23:00,
2013-04-27 14:28:00,72.7,46.3,29.99,WSW,257,8.0,9.0,39,0.00,,,0.45,,LWC V1.12 B30,2013-04-27 19:28:00,
2013-04-27 14:30:00,71.3,45.0,29.99,SW,225,2.0,7.0,39,0.00,,,0.00,0,LWC V2.10 B1813,2013-04-27 19:30:00,
2013-04-27 14:33:00,72.4,43.9,29.99,SW,229,0.0,5.0,36,0.00,,,0.45,,LWC V1.12 B30,2013-04-27 19:33:00,
2013-04-27 14:38:00,72.4,44.6,29.99,SW,223,4.0,10.0,37,0.00,,,0.45,,LWC V1.12 B30,2013-04-27 19:38:00,
2013-04-27 14:40:00,71.9,45.6,29.99,West,270,2.0,12.0,39,0.00,,,0.00,0,LWC V2.10 B1813,2013-04-27 19:40:00,
2013-04-27 14:43:00,72.3,44.6,29.98,SSW,212,1.0,11.0,37,0.00,,,0.45,,LWC V1.12 B30,2013-04-27 19:43:00,
2013-04-27 14:49:00,72.2,44.5,29.98,SSW,211,6.0,7.0,37,0.00,,,0.45,,LWC V1.12 B30,2013-04-27 19:49:00,
2013-04-27 14:50:00,72.4,44.6,29.98,SW,225,4.0,11.0,37,0.00,,,0.00,0,LWC V2.10 B1813,2013-04-27 19:50:00,
2013-04-27 14:54:00,72.4,44.6,29.98,South,182,3.0,9.0,37,0.00,,,0.45,,LWC V1.12 B30,2013-04-27 19:54:00,
2013-04-27 14:59:00,73.3,44.7,29.97,South,184,2.0,7.0,36,0.00,,,0.45,,LWC V1.12 B30,2013-04-27 19:59:00,
2013-04-27 15:00:00,72.4,44.6,29.98,SW,225,4.0,11.0,37,0.00,,,0.00,0,LWC V2.10 B1813,2013-04-27 20:00:00,
2013-04-27 15:04:00,73.4,44.1,29.97,WSW,246,6.0,11.0,35,0.00,,,0.45,,LWC V1.12 B30,2013-04-27 20:04:00,
2013-04-27 15:09:00,73.4,44.8,29.97,WSW,242,1.0,6.0,36,0.00,,,0.45,,LWC V1.12 B30,2013-04-27 20:09:00,
2013-04-27 15:10:00,72.5,44.7,29.97,South,180,3.0,10.0,37,0.00,,,0.00,0,LWC V2.10 B1813,2013-04-27 20:10:00,
2013-04-27 15:14:00,73.2,43.9,29.97,West,265,5.0,6.0,35,0.00,,,0.45,,LWC V1.12 B30,2013-04-27 20:14:00,
2013-04-27 15:19:00,73.4,44.1,29.97,West,267,2.0,2.0,35,0.00,,,0.45,,LWC V1.12 B30,2013-04-27 20:19:00,
2013-04-27 15:20:00,73.4,44.1,29.97,WSW,248,4.0,13.0,35,0.00,,,0.00,0,LWC V2.10 B1813,2013-04-27 20:20:00,
2013-04-27 15:24:00,73.6,44.2,29.97,West,274,4.0,6.0,35,0.00,,,0.45,,LWC V1.12 B30,2013-04-27 20:24:00,
2013-04-27 15:29:00,73.3,44.0,29.97,WSW,245,1.0,5.0,35,0.00,,,0.45,,LWC V1.12 B30,2013-04-27 20:29:00,
2013-04-27 15:30:00,73.4,44.1,29.97,WSW,248,4.0,13.0,35,0.00,,,0.00,0,LWC V2.10 B1813,2013-04-27 20:30:00,
2013-04-27 15:34:00,73.4,44.8,29.96,West,264,5.0,6.0,36,0.00,,,0.45,,LWC V1.12 B30,2013-04-27 20:34:00,
2013-04-27 15:39:00,73.0,44.5,29.96,WSW,248,1.0,5.0,36,0.00,,,0.45,,LWC V1.12 B30,2013-04-27 20:39:00,
2013-04-27 15:40:00,73.5,44.9,29.97,West,270,3.0,8.0,36,0.00,,,0.00,0,LWC V2.10 B1813,2013-04-27 20:40:00,
2013-04-27 15:44:00,74.0,44.6,29.95,WSW,243,4.0,4.0,35,0.00,,,0.45,,LWC V1.12 B30,2013-04-27 20:44:00,
2013-04-27 15:49:00,74.2,46.2,29.95,WSW,237,5.0,6.0,37,0.00,,,0.45,,LWC V1.12 B30,2013-04-27 20:49:00,
2013-04-27 15:50:00,73.5,44.2,29.95,WSW,248,2.0,6.0,35,0.00,,,0.00,0,LWC V2.10 B1813,2013-04-27 20:50:00,
2013-04-27 15:54:00,74.0,45.3,29.95,WSW,238,3.0,6.0,36,0.00,,,0.45,,LWC V1.12 B30,2013-04-27 20:54:00,
2013-04-27 15:59:00,74.4,44.9,29.94,SSW,200,2.0,2.0,35,0.00,,,0.45,,LWC V1.12 B30,2013-04-27 20:59:00,
2013-04-27 16:00:00,73.5,44.2,29.95,WSW,248,2.0,6.0,35,0.00,,,0.00,0,LWC V2.10 B1813,2013-04-27 21:00:00,
2013-04-27 16:04:00,74.5,45.0,29.94,SSW,198,0.0,3.0,35,0.00,,,0.45,,LWC V1.12 B30,2013-04-27 21:04:00,
2013-04-27 16:09:00,74.7,44.4,29.94,South,191,0.0,4.0,34,0.00,,,0.45,,LWC V1.12 B30,2013-04-27 21:09:00,
2013-04-27 16:10:00,74.1,44.7,29.95,WSW,248,4.0,12.0,35,0.00,,,0.00,0,LWC V2.10 B1813,2013-04-27 21:10:00,
2013-04-27 16:14:00,75.1,44.8,29.94,SSW,203,0.0,1.0,34,0.00,,,0.45,,LWC V1.12 B30,2013-04-27 21:14:00,
2013-04-27 16:19:00,74.7,44.4,29.94,South,179,4.0,7.0,34,0.00,,,0.45,,LWC V1.12 B30,2013-04-27 21:19:00,
2013-04-27 16:20:00,74.7,44.5,29.94,SSW,202,1.0,9.0,34,0.00,,,0.00,0,LWC V2.10 B1813,2013-04-27 21:20:00,
2013-04-27 16:24:00,74.7,46.7,29.93,South,180,0.0,1.0,37,0.00,,,0.45,,LWC V1.12 B30,2013-04-27 21:24:00,
2013-04-27 16:29:00,75.1,44.8,29.93,SSW,205,5.0,6.0,34,0.00,,,0.45,,LWC V1.12 B30,2013-04-27 21:29:00,
2013-04-27 16:30:00,74.7,44.5,29.94,SSW,202,1.0,9.0,34,0.00,,,0.00,0,LWC V2.10 B1813,2013-04-27 21:30:00,
2013-04-27 16:34:00,75.1,45.6,29.93,SSW,207,5.0,10.0,35,0.00,,,0.45,,LWC V1.12 B30,2013-04-27 21:34:00,
2013-04-27 16:39:00,74.6,45.9,29.92,SSW,207,4.0,5.0,36,0.00,,,0.45,,LWC V1.12 B30,2013-04-27 21:39:00,
2013-04-27 16:40:00,74.9,44.6,29.93,South,180,3.0,13.0,34,0.00,,,0.00,0,LWC V2.10 B1813,2013-04-27 21:40:00,
2013-04-27 16:44:00,74.6,45.1,29.92,SSW,207,3.0,6.0,35,0.00,,,0.45,,LWC V1.12 B30,2013-04-27 21:44:00,
2013-04-27 16:49:00,73.6,45.0,29.92,SSE,161,3.0,5.0,36,0.00,,,0.45,,LWC V1.12 B30,2013-04-27 21:49:00,
2013-04-27 16:50:00,74.8,45.3,29.92,SSW,202,3.0,10.0,35,0.00,,,0.00,0,LWC V2.10 B1813,2013-04-27 21:50:00,
2013-04-27 16:54:00,73.5,44.2,29.92,SSW,193,3.0,7.0,35,0.00,,,0.45,,LWC V1.12 B30,2013-04-27 21:54:00,
2013-04-27 16:59:00,73.4,44.8,29.92,South,190,0.0,7.0,36,0.00,,,0.45,,LWC V1.12 B30,2013-04-27 21:59:00,
2013-04-27 17:00:00,74.8,45.3,29.92,SSW,202,3.0,10.0,35,0.00,,,0.00,0,LWC V2.10 B1813,2013-04-27 22:00:00,
2013-04-27 17:04:00,74.0,46.1,29.91,South,190,2.0,4.0,37,0.00,,,0.45,,LWC V1.12 B30,2013-04-27 22:04:00,
2013-04-27 17:09:00,74.7,45.2,29.91,SSW,200,1.0,10.0,35,0.00,,,0.45,,LWC V1.12 B30,2013-04-27 22:09:00,
2013-04-27 17:10:00,73.7,45.8,29.92,SSE,158,3.0,10.0,37,0.00,,,0.00,0,LWC V2.10 B1813,2013-04-27 22:10:00,
2013-04-27 17:14:00,74.2,44.8,29.91,South,173,5.0,5.0,35,0.00,,,0.45,,LWC V1.12 B30,2013-04-27 22:14:00,
2013-04-27 17:19:00,73.8,45.2,29.91,South,180,4.0,5.0,36,0.00,,,0.45,,LWC V1.12 B30,2013-04-27 22:19:00,
2013-04-27 17:20:00,74.2,44.8,29.91,South,180,3.0,10.0,35,0.00,,,0.00,0,LWC V2.10 B1813,2013-04-27 22:20:00,
2013-04-27 17:24:00,73.9,45.2,29.91,South,190,1.0,6.0,36,0.00,,,0.45,,LWC V1.12 B30,2013-04-27 22:24:00,
2013-04-27 17:29:00,74.4,46.4,29.90,South,190,0.0,6.0,37,0.00,,,0.45,,LWC V1.12 B30,2013-04-27 22:29:00,
2013-04-27 17:30:00,74.2,44.8,29.91,South,180,3.0,10.0,35,0.00,,,0.00,0,LWC V2.10 B1813,2013-04-27 22:30:00,
2013-04-27 17:34:00,75.4,46.6,29.90,South,190,4.0,6.0,36,0.00,,,0.45,,LWC V1.12 B30,2013-04-27 22:34:00,
2013-04-27 17:39:00,75.6,45.2,29.90,South,190,2.0,3.0,34,0.00,,,0.45,,LWC V1.12 B30,2013-04-27 22:39:00,
2013-04-27 17:40:00,74.0,45.3,29.90,South,180,2.0,7.0,36,0.00,,,0.00,0,LWC V2.10 B1813,2013-04-27 22:40:00,
2013-04-27 17:44:00,76.1,45.7,29.89,South,190,0.0,1.0,34,0.00,,,0.45,,LWC V1.12 B30,2013-04-27 22:44:00,
2013-04-27 17:49:00,75.8,46.2,29.89,SSW,192,9.0,9.0,35,0.00,,,0.45,,LWC V1.12 B30,2013-04-27 22:49:00,
2013-04-27 17:50:00,75.5,45.1,29.89,South,180,1.0,6.0,34,0.00,,,0.00,0,LWC V2.10 B1813,2013-04-27 22:50:00,
2013-04-27 17:54:00,75.2,45.7,29.89,SSW,202,5.0,8.0,35,0.00,,,0.45,,LWC V1.12 B30,2013-04-27 22:54:00,
2013-04-27 17:59:00,75.2,45.7,29.89,SSE,167,2.0,9.0,35,0.00,,,0.45,,LWC V1.12 B30,2013-04-27 22:59:00,
2013-04-27 18:00:00,75.5,45.1,29.89,South,180,1.0,6.0,34,0.00,,,0.00,0,LWC V2.10 B1813,2013-04-27 23:00:00,
2013-04-27 18:04:00,75.2,46.4,29.89,SSW,202,5.0,12.0,36,0.00,,,0.45,,LWC V1.12 B30,2013-04-27 23:04:00,
2013-04-27 18:09:00,75.3,45.7,29.89,South,188,4.0,11.0,35,0.00,,,0.45,,LWC V1.12 B30,2013-04-27 23:09:00,
2013-04-27 18:10:00,75.5,45.9,29.89,SSW,202,3.0,10.0,35,0.00,,,0.00,0,LWC V2.10 B1813,2013-04-27 23:10:00,
2013-04-27 18:14:00,75.3,45.7,29.89,South,189,2.0,7.0,35,0.00,,,0.45,,LWC V1.12 B30,2013-04-27 23:14:00,
2013-04-27 18:19:00,75.3,46.5,29.89,South,188,3.0,5.0,36,0.00,,,0.45,,LWC V1.12 B30,2013-04-27 23:19:00,
2013-04-27 18:20:00,75.2,44.9,29.89,South,180,4.0,13.0,34,0.00,,,0.00,0,LWC V2.10 B1813,2013-04-27 23:20:00,
2013-04-27 18:24:00,75.1,44.8,29.89,SSW,193,4.0,9.0,34,0.00,,,0.45,,LWC V1.12 B30,2013-04-27 23:24:00,
2013-04-27 18:29:00,75.0,45.5,29.89,SSW,193,2.0,5.0,35,0.00,,,0.45,,LWC V1.12 B30,2013-04-27 23:29:00,
2013-04-27 18:30:00,75.2,44.9,29.89,South,180,4.0,13.0,34,0.00,,,0.00,0,LWC V2.10 B1813,2013-04-27 23:30:00,
2013-04-27 18:34:00,74.6,45.1,29.88,SSE,163,1.0,9.0,35,0.00,,,0.45,,LWC V1.12 B30,2013-04-27 23:34:00,
2013-04-27 18:39:00,74.4,45.7,29.88,South,178,3.0,7.0,36,0.00,,,0.45,,LWC V1.12 B30,2013-04-27 23:39:00,
2013-04-27 18:40:00,75.1,44.8,29.89,South,180,3.0,9.0,34,0.00,,,0.00,0,LWC V2.10 B1813,2013-04-27 23:40:00,
2013-04-27 18:44:00,74.2,45.5,29.88,South,178,3.0,7.0,36,0.00,,,0.45,,LWC V1.12 B30,2013-04-27 23:44:00,
2013-04-27 18:49:00,74.0,46.1,29.88,South,175,1.0,10.0,37,0.00,,,0.45,,LWC V1.12 B30,2013-04-27 23:49:00,
2013-04-27 18:50:00,74.5,45.8,29.88,South,180,3.0,12.0,36,0.00,,,0.00,0,LWC V2.10 B1813,2013-04-27 23:50:00,
2013-04-27 18:54:00,73.9,46.0,29.88,South,178,2.0,9.0,37,0.00,,,0.45,,LWC V1.12 B30,2013-04-27 23:54:00,
2013-04-27 18:59:00,73.9,46.0,29.88,South,190,5.0,11.0,37,0.00,,,0.45,,LWC V1.12 B30,2013-04-27 23:59:00,
2013-04-27 19:00:00,74.5,45.8,29.88,South,180,3.0,12.0,36,0.00,,,0.00,0,LWC V2.10 B1813,2013-04-28 00:00:00,
2013-04-27 19:04:00,73.2,45.4,29.88,SSE,152,4.0,9.0,37,0.00,,,0.45,,LWC V1.12 B30,2013-04-28 00:04:00,
2013-04-27 19:09:00,73.0,45.9,29.88,South,179,3.0,12.0,38,0.00,,,0.45,,LWC V1.12 B30,2013-04-28 00:09:00,
2013-04-27 19:10:00,74.0,46.1,29.88,South,180,4.0,11.0,37,0.00,,,0.00,0,LWC V2.10 B1813,2013-04-28 00:10:00,
2013-04-27 19:14:00,73.0,45.9,29.88,South,186,4.0,12.0,38,0.00,,,0.45,,LWC V1.12 B30,2013-04-28 00:14:00,
2013-04-27 19:19:00,73.0,45.9,29.88,SSW,193,2.0,10.0,38,0.00,,,0.45,,LWC V1.12 B30,2013-04-28 00:19:00,
2013-04-27 19:20:00,73.2,46.1,29.88,South,180,5.0,12.0,38,0.00,,,0.00,0,LWC V2.10 B1813,2013-04-28 00:20:00,
2013-04-27 19:24:00,72.7,45.6,29.88,South,188,3.0,11.0,38,0.00,,,0.45,,LWC V1.12 B30,2013-04-28 00:24:00,
2013-04-27 19:29:00,72.5,46.1,29.88,South,190,0.0,6.0,39,0.00,,,0.45,,LWC V1.12 B30,2013-04-28 00:29:00,
2013-04-27 19:30:00,73.2,46.1,29.88,South,180,5.0,12.0,38,0.00,,,0.00,0,LWC V2.10 B1813,2013-04-28 00:30:00,
2013-04-27 19:34:00,72.1,46.4,29.87,SSE,167,7.0,7.0,40,0.00,,,0.45,,LWC V1.12 B30,2013-04-28 00:34:00,
2013-04-27 19:39:00,71.6,46.0,29.87,South,173,1.0,10.0,40,0.00,,,0.45,,LWC V1.12 B30,2013-04-28 00:39:00,
2013-04-27 19:40:00,72.8,46.4,29.88,SSW,202,4.0,12.0,39,0.00,,,0.00,0,LWC V2.10 B1813,2013-04-28 00:40:00,
2013-04-27 19:44:00,71.1,46.2,29.87,South,183,5.0,6.0,41,0.00,,,0.45,,LWC V1.12 B30,2013-04-28 00:44:00,
2013-04-27 19:49:00,70.8,46.6,29.87,SSE,167,0.0,9.0,42,0.00,,,0.45,,LWC V1.12 B30,2013-04-28 00:49:00,
2013-04-27 19:50:00,71.7,46.7,29.87,South,180,4.0,13.0,41,0.00,,,0.00,0,LWC V2.10 B1813,2013-04-28 00:50:00,
2013-04-27 19:54:00,70.3,46.7,29.87,South,186,3.0,9.0,43,0.00,,,0.45,,LWC V1.12 B30,2013-04-28 00:54:00,
2013-04-27 19:59:00,69.7,46.2,29.87,South,190,8.0,9.0,43,0.00,,,0.45,,LWC V1.12 B30,2013-04-28 00:59:00,
2013-04-27 20:00:00,71.7,46.7,29.87,South,180,4.0,13.0,41,0.00,,,0.00,0,LWC V2.10 B1813,2013-04-28 01:00:00,
2013-04-27 20:04:00,69.3,45.8,29.87,South,187,0.0,3.0,43,0.00,,,0.45,,LWC V1.12 B30,2013-04-28 01:04:00,
2013-04-27 20:09:00,68.7,45.9,29.87,South,178,4.0,11.0,44,0.00,,,0.45,,LWC V1.12 B30,2013-04-28 01:09:00,
2013-04-27 20:10:00,70.4,46.8,29.87,South,180,3.0,10.0,43,0.00,,,0.00,0,LWC V2.10 B1813,2013-04-28 01:10:00,
2013-04-27 20:14:00,68.1,45.9,29.87,South,177,0.0,6.0,45,0.00,,,0.45,,LWC V1.12 B30,2013-04-28 01:14:00,
2013-04-27 20:19:00,67.6,45.5,29.87,South,190,2.0,11.0,45,0.00,,,0.45,,LWC V1.12 B30,2013-04-28 01:19:00,
2013-04-27 20:20:00,68.9,46.7,29.87,South,180,3.0,11.0,45,0.00,,,0.00,0,LWC V2.10 B1813,2013-04-28 01:20:00,
2013-04-27 20:24:00,67.2,45.7,29.87,South,182,2.0,9.0,46,0.00,,,0.45,,LWC V1.12 B30,2013-04-28 01:24:00,
2013-04-27 20:29:00,66.7,45.8,29.87,South,176,1.0,6.0,47,0.00,,,0.45,,LWC V1.12 B30,2013-04-28 01:29:00,
2013-04-27 20:30:00,68.9,46.7,29.87,South,180,3.0,11.0,45,0.00,,,0.00,0,LWC V2.10 B1813,2013-04-28 01:30:00,
2013-04-27 20:34:00,66.3,45.5,29.87,SSE,159,3.0,7.0,47,0.00,,,0.45,,LWC V1.12 B30,2013-04-28 01:34:00,
2013-04-27 20:39:00,65.9,45.6,29.87,South,169,3.0,6.0,48,0.00,,,0.45,,LWC V1.12 B30,2013-04-28 01:39:00,
2013-04-27 20:40:00,67.4,46.5,29.87,South,180,4.0,11.0,47,0.00,,,0.00,0,LWC V2.10 B1813,2013-04-28 01:40:00,
2013-04-27 20:44:00,65.6,45.4,29.87,South,182,5.0,7.0,48,0.00,,,0.45,,LWC V1.12 B30,2013-04-28 01:44:00,
2013-04-27 20:49:00,65.1,45.5,29.87,South,186,5.0,10.0,49,0.00,,,0.45,,LWC V1.12 B30,2013-04-28 01:49:00,
2013-04-27 20:50:00,66.1,45.8,29.87,SSE,158,4.0,8.0,48,0.00,,,0.00,0,LWC V2.10 B1813,2013-04-28 01:50:00,
2013-04-27 20:54:00,64.7,45.6,29.87,South,184,3.0,7.0,50,0.00,,,0.45,,LWC V1.12 B30,2013-04-28 01:54:00,
2013-04-27 20:59:00,64.5,45.4,29.87,South,188,13.0,13.0,50,0.00,,,0.45,,LWC V1.12 B30,2013-04-28 01:59:00,
2013-04-27 21:00:00,66.1,45.8,29.87,SSE,158,4.0,8.0,48,0.00,,,0.00,0,LWC V2.10 B1813,2013-04-28 02:00:00,
2013-04-27 21:04:00,64.4,45.3,29.87,SSW,198,1.0,9.0,50,0.00,,,0.45,,LWC V1.12 B30,2013-04-28 02:04:00,
2013-04-27 21:09:00,64.2,45.2,29.87,SSW,195,0.0,7.0,50,0.00,,,0.45,,LWC V1.12 B30,2013-04-28 02:09:00,
2013-04-27 21:10:00,64.9,45.8,29.87,South,180,4.0,13.0,50,0.00,,,0.00,0,LWC V2.10 B1813,2013-04-28 02:10:00,
2013-04-27 21:14:00,64.0,45.5,29.87,SSW,194,5.0,7.0,51,0.00,,,0.45,,LWC V1.12 B30,2013-04-28 02:14:00,
2013-04-27 21:19:00,63.7,45.2,29.87,South,189,7.0,11.0,51,0.00,,,0.45,,LWC V1.12 B30,2013-04-28 02:19:00,
2013-04-27 21:20:00,64.3,45.8,29.87,SSW,202,4.0,12.0,51,0.00,,,0.00,0,LWC V2.10 B1813,2013-04-28 02:20:00,
2013-04-27 21:24:00,63.5,45.0,29.87,South,190,5.0,9.0,51,0.00,,,0.45,,LWC V1.12 B30,2013-04-28 02:24:00,
2013-04-27 21:29:00,63.3,44.9,29.87,South,191,4.0,9.0,51,0.00,,,0.45,,LWC V1.12 B30,2013-04-28 02:29:00,
2013-04-27 21:30:00,64.3,45.8,29.87,SSW,202,4.0,12.0,51,0.00,,,0.00,0,LWC V2.10 B1813,2013-04-28 02:30:00,
2013-04-27 21:34:00,63.3,44.9,29.88,SSW,194,4.0,6.0,51,0.00,,,0.45,,LWC V1.12 B30,2013-04-28 02:34:00,
2013-04-27 21:39:00,63.4,45.0,29.87,SSW,205,5.0,11.0,51,0.00,,,0.45,,LWC V1.12 B30,2013-04-28 02:39:00,
2013-04-27 21:40:00,63.6,45.1,29.87,South,180,4.0,11.0,51,0.00,,,0.00,0,LWC V2.10 B1813,2013-04-28 02:40:00,
2013-04-27 21:44:00,63.2,44.8,29.87,SSW,198,3.0,8.0,51,0.00,,,0.45,,LWC V1.12 B30,2013-04-28 02:44:00,
2013-04-27 21:49:00,62.9,45.0,29.87,SSW,198,3.0,9.0,52,0.00,,,0.45,,LWC V1.12 B30,2013-04-28 02:49:00,
2013-04-27 21:50:00,63.3,44.9,29.87,SSW,202,4.0,11.0,51,0.00,,,0.00,0,LWC V2.10 B1813,2013-04-28 02:50:00,
2013-04-27 21:54:00,62.7,44.8,29.87,South,191,4.0,5.0,52,0.00,,,0.45,,LWC V1.12 B30,2013-04-28 02:54:00,
2013-04-27 21:59:00,62.5,44.6,29.87,SSW,203,4.0,11.0,52,0.00,,,0.45,,LWC V1.12 B30,2013-04-28 02:59:00,
2013-04-27 22:00:00,63.3,44.9,29.87,SSW,202,4.0,11.0,51,0.00,,,0.00,0,LWC V2.10 B1813,2013-04-28 03:00:00,
2013-04-27 22:04:00,62.4,44.5,29.88,SSW,202,3.0,5.0,52,0.00,,,0.45,,LWC V1.12 B30,2013-04-28 03:04:00,
2013-04-27 22:09:00,62.2,44.9,29.88,SSW,201,8.0,12.0,53,0.00,,,0.45,,LWC V1.12 B30,2013-04-28 03:09:00,
2013-04-27 22:10:00,62.8,44.9,29.87,SSW,202,3.0,11.0,52,0.00,,,0.00,0,LWC V2.10 B1813,2013-04-28 03:10:00,
2013-04-27 22:14:00,62.0,45.2,29.88,SSW,207,5.0,10.0,54,0.00,,,0.45,,LWC V1.12 B30,2013-04-28 03:14:00,
2013-04-27 22:19:00,61.7,45.4,29.88,SSW,210,5.0,12.0,55,0.00,,,0.45,,LWC V1.12 B30,2013-04-28 03:19:00,
2013-04-27 22:20:00,62.3,45.4,29.88,SSW,202,4.0,12.0,54,0.00,,,0.00,0,LWC V2.10 B1813,2013-04-28 03:20:00,
2013-04-27 22:24:00,61.4,46.0,29.88,SSW,210,5.0,12.0,57,0.00,,,0.45,,LWC V1.12 B30,2013-04-28 03:24:00,
2013-04-27 22:29:00,61.1,46.2,29.88,SSW,204,10.0,10.0,58,0.00,,,0.45,,LWC V1.12 B30,2013-04-28 03:29:00,
2013-04-27 22:30:00,62.3,45.4,29.88,SSW,202,4.0,12.0,54,0.00,,,0.00,0,LWC V2.10 B1813,2013-04-28 03:30:00,
2013-04-27 22:34:00,60.8,46.4,29.88,SSE,167,11.0,14.0,59,0.00,,,0.45,,LWC V1.12 B30,2013-04-28 03:34:00,
2013-04-27 22:39:00,60.5,46.5,29.88,SW,220,4.0,11.0,60,0.00,,,0.45,,LWC V1.12 B30,2013-04-28 03:39:00,
2013-04-27 22:40:00,61.5,46.6,29.88,SSW,202,6.0,13.0,58,0.00,,,0.00,0,LWC V2.10 B1813,2013-04-28 03:40:00,
2013-04-27 22:44:00,60.3,46.8,29.88,South,191,5.0,11.0,61,0.00,,,0.45,,LWC V1.12 B30,2013-04-28 03:44:00,
2013-04-27 22:49:00,60.1,46.6,29.88,SSW,209,1.0,10.0,61,0.00,,,0.45,,LWC V1.12 B30,2013-04-28 03:49:00,
2013-04-27 22:50:00,60.6,47.1,29.88,SW,225,6.0,14.0,61,0.00,,,0.00,0,LWC V2.10 B1813,2013-04-28 03:50:00,
2013-04-27 22:54:00,59.9,46.8,29.87,SW,217,4.0,10.0,62,0.00,,,0.45,,LWC V1.12 B30,2013-04-28 03:54:00,
2013-04-27 22:59:00,59.7,47.1,29.88,SSW,205,10.0,11.0,63,0.00,,,0.45,,LWC V1.12 B30,2013-04-28 03:59:00,
2013-04-27 23:00:00,60.6,47.1,29.88,SW,225,6.0,14.0,61,0.00,,,0.00,0,LWC V2.10 B1813,2013-04-28 04:00:00,
2013-04-27 23:01:00,59.7,47.1,29.88,SSW,194,4.0,10.0,63,0.00,,,0.45,,LWC V1.12 B30,2013-04-28 04:01:00,
2013-04-27 23:06:00,59.5,46.9,29.88,SSW,195,7.0,13.0,63,0.00,,,0.45,,LWC V1.12 B30,2013-04-28 04:06:00,
2013-04-27 23:10:00,60.0,47.4,29.88,SSW,202,6.0,12.0,63,0.00,,,0.00,0,LWC V2.10 B1813,2013-04-28 04:10:00,
2013-04-27 23:11:00,59.3,46.7,29.88,SW,214,1.0,10.0,63,0.00,,,0.45,,LWC V1.12 B30,2013-04-28 04:11:00,
2013-04-27 23:16:00,59.0,46.8,29.88,SSW,194,4.0,12.0,64,0.00,,,0.45,,LWC V1.12 B30,2013-04-28 04:16:00,
2013-04-27 23:20:00,59.4,46.8,29.88,SSW,202,6.0,13.0,63,0.00,,,0.00,0,LWC V2.10 B1813,2013-04-28 04:20:00,
2013-04-27 23:21:00,59.0,46.8,29.88,SSW,210,6.0,12.0,64,0.00,,,0.45,,LWC V1.12 B30,2013-04-28 04:21:00,
2013-04-27 23:24:00,58.8,46.6,29.88,SSW,208,3.0,11.0,64,0.00,,,0.45,,LWC V1.12 B30,2013-04-28 04:24:00,
2013-04-27 23:30:00,58.6,46.5,29.87,SW,223,6.0,14.0,64,0.00,,,0.45,,LWC V1.12 B30,2013-04-28 04:30:00,
2013-04-27 23:35:00,58.4,46.7,29.87,SSW,213,7.0,12.0,65,0.00,,,0.45,,LWC V1.12 B30,2013-04-28 04:35:00,
2013-04-27 23:40:00,58.2,46.5,29.88,SW,214,4.0,12.0,65,0.00,,,0.45,,LWC V1.12 B30,2013-04-28 04:40:00,
2013-04-27 23:45:00,58.1,46.8,29.88,SW,232,12.0,13.0,66,0.00,,,0.45,,LWC V1.12 B30,2013-04-28 04:45:00,
2013-04-27 23:50:00,58.0,47.1,29.88,SW,214,2.0,7.0,67,0.00,,,0.45,,LWC V1.12 B30,2013-04-28 04:50:00,
2013-04-27 23:55:00,57.8,46.9,29.88,SW,219,6.0,11.0,67,0.00,,,0.45,,LWC V1.12 B30,2013-04-28 04:55:00,